K2CAT Weather Reports


time (UTC)temp
C
wind
direction
speed
KPH
gust
KPH
rain 1hr
cm
rain 24hr
cm
rain mn
cm
humidity
%
barometer
mb
20260506160039 17 265 0.0 0.0 0.18 0.23 0.23 95 1007.6
20260506155538 17 266 0.0 0.0 0.18 0.23 0.23 94 1007.4
20260506153709 17 319 0.0 0.0 0.30 0.18 0.18 93 1007.6
20260506153207 17 234 0.0 0.0 0.13 0.15 0.15 92 1007.6
20260506152703 17 231 0.0 1.6 0.30 0.15 0.15 92 1007.5
20260506152201 17 267 0.0 0.0 0.36 0.13 0.13 91 1007.6
20260506151700 17 253 0.0 0.0 0.30 0.10 0.10 91 1007.6
20260506151156 17 244 0.0 0.0 0.13 0.08 0.08 90 1007.8
20260506150652 17 349 0.0 0.0 0.18 0.05 0.05 90 1007.9
20260506150150 17 334 0.0 1.6 0.18 0.05 0.05 89 1007.8
20260506145646 17 11 0.0 0.0 0.13 0.03 0.03 87 1007.9
20260506145143 18 315 1.6 1.6 0.13 0.03 0.03 86 1007.8
20260506144641 18 206 0.0 1.6 0.00 0.00 0.00 85 1007.6
20260506144137 18 245 0.0 0.0 0.00 0.00 0.00 84 1007.7
20260506143635 18 25 3.2 4.8 0.00 0.00 0.00 84 1007.6
20260506143133 18 15 0.0 1.6 0.00 0.00 0.00 83 1007.8
20260506142631 18 328 0.0 0.0 0.00 0.00 0.00 82 1008.0
20260506142129 18 284 0.0 0.0 0.00 0.00 0.00 82 1008.0
20260506141626 18 349 0.0 0.0 0.00 0.00 0.00 82 1008.0
20260506141124 18 292 0.0 0.0 0.00 0.00 0.00 81 1008.0
20260506140622 18 218 0.0 0.0 0.00 0.00 0.00 80 1008.1
20260506140119 19 215 1.6 1.6 0.00 0.00 0.00 78 1008.2
20260506135615 19 320 0.0 1.6 0.00 0.00 0.00 78 1008.1
20260506135112 19 212 1.6 3.2 0.00 0.00 0.00 77 1007.9
20260506134608 20 135 4.8 9.7 0.00 0.00 0.00 75 1007.8
20260506134104 20 62 1.6 1.6 0.00 0.00 0.00 75 1008.0
20260506133602 20 301 0.0 0.0 0.00 0.00 0.00 76 1007.6
20260506133059 20 154 3.2 3.2 0.00 0.00 0.00 75 1007.6
20260506132556 20 293 0.0 0.0 0.00 0.00 0.00 77 1007.6
20260506132053 20 263 0.0 0.0 0.00 0.00 0.00 79 1007.3
20260506131550 19 316 0.0 0.0 0.00 0.00 0.00 79 1007.4
20260506131046 18 319 0.0 0.0 0.00 0.00 0.00 79 1007.5
20260506130543 18 205 1.6 3.2 0.00 0.00 0.00 80 1007.3
20260506130041 18 290 1.6 3.2 0.00 0.00 0.00 82 1007.3
20260506125539 18 275 0.0 0.0 0.00 0.00 0.00 82 1007.3
20260506125036 18 259 0.0 0.0 0.00 0.00 0.00 83 1007.6
20260506124534 18 257 0.0 1.6 0.00 0.00 0.00 83 1007.6
20260506124032 17 229 0.0 0.0 0.00 0.00 0.00 83 1007.8
20260506123529 17 228 0.0 0.0 0.00 0.00 0.00 83 1007.7
20260506123027 17 228 0.0 0.0 0.00 0.00 0.00 84 1007.9
20260506122524 17 227 0.0 0.0 0.00 0.00 0.00 84 1007.7
20260506122022 17 306 0.0 0.0 0.00 0.00 0.00 83 1007.9
20260506121519 17 307 0.0 0.0 0.00 0.00 0.00 83 1007.9
20260506121015 17 299 0.0 0.0 0.00 0.00 0.00 83 1007.8
20260506120514 17 292 1.6 1.6 0.00 0.00 0.00 82 1007.9
20260506120011 17 229 0.0 0.0 0.00 0.00 0.00 83 1007.9
20260506115508 17 220 0.0 1.6 0.00 0.00 0.00 83 1008.1
20260506115007 17 319 0.0 0.0 0.00 0.00 0.00 82 1008.1
20260506114504 17 319 0.0 0.0 0.00 0.00 0.00 83 1007.9
20260506114002 17 319 0.0 0.0 0.00 0.00 0.00 83 1007.7
20260506113459 17 319 0.0 0.0 0.00 0.00 0.00 82 1007.7
20260506112956 17 319 0.0 0.0 0.00 0.00 0.00 83 1007.6
20260506112453 17 319 0.0 0.0 0.00 0.00 0.00 82 1007.8
20260506111950 17 319 0.0 0.0 0.00 0.00 0.00 81 1007.8
20260506111449 17 320 0.0 1.6 0.00 0.00 0.00 81 1007.6
20260506110945 16 230 1.6 1.6 0.00 0.00 0.00 83 1007.6
20260506110443 16 325 0.0 0.0 0.00 0.00 0.00 83 1007.8
20260506105939 16 324 0.0 0.0 0.00 0.00 0.00 83 1007.6
20260506105436 16 309 0.0 0.0 0.00 0.00 0.00 83 1007.4
20260506104933 16 316 0.0 0.0 0.00 0.00 0.00 84 1007.9
20260506104431 16 316 0.0 0.0 0.00 0.00 0.00 84 1007.7
20260506103929 16 317 0.0 1.6 0.00 0.00 0.00 84 1007.8
20260506103427 15 306 0.0 0.0 0.00 0.00 0.00 84 1007.8
20260506102923 15 257 1.6 1.6 0.00 0.00 0.00 84 1007.6
20260506102421 15 294 0.0 0.0 0.00 0.00 0.00 84 1007.4
20260506101918 15 294 0.0 0.0 0.00 0.00 0.00 84 1007.4
20260506101414 15 292 0.0 0.0 0.00 0.00 0.00 84 1007.4
20260506100912 15 294 0.0 0.0 0.00 0.00 0.00 84 1007.4
20260506100410 15 282 0.0 0.0 0.00 0.00 0.00 84 1007.3
20260506095908 15 231 0.0 1.6 0.00 0.00 0.00 84 1007.5
20260506095406 15 275 0.0 1.6 0.00 0.00 0.00 84 1007.5
20260506094902 15 271 0.0 1.6 0.00 0.00 0.00 85 1007.5
20260506094401 15 296 0.0 0.0 0.00 0.00 0.00 84 1007.6
20260506093858 15 299 0.0 1.6 0.00 0.00 0.00 83 1007.6
20260506093356 15 247 0.0 0.0 0.00 0.00 0.00 83 1007.5
20260506092853 15 236 1.6 1.6 0.00 0.00 0.00 83 1007.4
20260506092351 15 275 0.0 0.0 0.00 0.00 0.00 84 1007.3
20260506091847 15 275 1.6 1.6 0.00 0.00 0.00 84 1007.3
20260506091345 15 275 0.0 0.0 0.00 0.00 0.00 84 1007.4
20260506090842 15 246 0.0 0.0 0.00 0.00 0.00 84 1007.3
20260506090340 15 256 0.0 0.0 0.00 0.00 0.00 83 1007.3
20260506085836 15 246 1.6 1.6 0.00 0.00 0.00 83 1007.4
20260506085332 15 232 0.0 0.0 0.00 0.00 0.00 83 1007.4
20260506084829 15 313 0.0 0.0 0.00 0.00 0.00 82 1007.5
20260506084326 15 299 1.6 1.6 0.00 0.00 0.00 82 1007.6
20260506083823 15 301 0.0 0.0 0.00 0.00 0.00 82 1007.6
20260506083320 15 302 1.6 1.6 0.00 0.00 0.00 81 1007.6
20260506082818 16 259 0.0 0.0 0.00 0.00 0.00 81 1007.7
20260506082314 16 318 0.0 0.0 0.00 0.00 0.00 80 1007.7
20260506081810 16 281 0.0 0.0 0.00 0.00 0.00 79 1007.7
20260506081308 16 280 0.0 0.0 0.00 0.00 0.00 78 1007.9
20260506080806 16 277 0.0 1.6 0.00 0.00 0.00 78 1007.8
20260506080302 16 321 0.0 0.0 0.00 0.00 0.00 78 1007.5
20260506073246 16 317 0.0 0.0 0.00 0.00 0.00 76 1007.9
20260506072743 16 302 0.0 0.0 0.00 0.00 0.00 76 1007.5
20260506072240 17 291 0.0 0.0 0.00 0.00 0.00 76 1007.8
20260506071738 17 290 0.0 0.0 0.00 0.00 0.00 75 1007.6
20260506071236 17 266 0.0 0.0 0.00 0.00 0.00 74 1007.6
20260506070732 17 313 0.0 0.0 0.00 0.00 0.00 74 1007.7
20260506070229 17 295 0.0 0.0 0.00 0.00 0.00 74 1007.8
20260506062206 17 320 0.0 0.0 0.00 0.00 0.00 71 1008.0
20260506061702 17 225 0.0 0.0 0.00 0.00 0.00 73 1008.1
20260506061200 17 310 0.0 0.0 0.00 0.00 0.00 73 1008.2
20260506060659 17 274 0.0 0.0 0.00 0.00 0.00 73 1008.3
20260506060155 17 246 1.6 3.2 0.00 0.00 0.00 72 1008.1
20260506051127 17 323 1.6 1.6 0.00 0.00 0.00 73 1008.0
20260506050625 17 220 0.0 0.0 0.00 0.00 0.00 72 1008.3
20260506050122 17 238 0.0 1.6 0.00 0.00 0.00 72 1008.2
20260506045115 17 285 0.0 0.0 0.00 0.00 0.00 73 1008.3
20260506044613 17 286 0.0 1.6 0.00 0.00 0.00 73 1008.1
20260506044110 17 219 0.0 0.0 0.00 0.00 0.00 72 1008.2
20260506043607 17 219 0.0 0.0 0.00 0.00 0.00 71 1008.1
20260506043105 17 253 0.0 1.6 0.00 0.00 0.00 70 1008.2
20260506042604 18 260 0.0 1.6 0.00 0.00 0.00 69 1008.1
20260506042102 18 261 0.0 0.0 0.00 0.00 0.00 69 1008.0
20260506041600 18 335 0.0 0.0 0.00 0.00 0.00 70 1008.0
20260506041056 18 302 0.0 0.0 0.00 0.00 0.00 69 1008.1
20260506040554 18 302 0.0 0.0 0.00 0.00 0.00 69 1008.1
20260506040050 18 302 0.0 0.0 0.00 0.00 0.00 71 1008.0
20260506035547 18 322 0.0 0.0 0.00 0.00 0.00 70 1007.9
20260506035044 18 291 0.0 0.0 0.00 0.00 0.00 71 1007.7
20260506034541 18 291 0.0 0.0 0.00 0.00 0.00 70 1007.7
20260506034038 18 291 0.0 0.0 0.00 0.00 0.00 68 1007.8
20260506033536 18 291 0.0 0.0 0.00 0.00 0.00 68 1007.9
20260506033032 18 291 0.0 0.0 0.00 0.00 0.00 67 1007.9
20260506032530 18 291 0.0 0.0 0.00 0.00 0.00 66 1007.6
20260506032026 19 291 0.0 0.0 0.00 0.00 0.00 67 1007.9
20260506031524 19 291 0.0 0.0 0.00 0.00 0.00 66 1007.7
20260506031021 19 290 0.0 0.0 0.00 0.00 0.00 65 1007.7
20260506030519 20 291 0.0 0.0 0.00 0.00 0.00 65 1007.7
20260506030016 20 343 0.0 0.0 0.00 0.00 0.00 64 1007.7
20260506025513 20 257 0.0 1.6 0.00 0.00 0.00 64 1007.9
20260506025009 20 313 1.6 1.6 0.00 0.00 0.00 62 1007.8
20260506024507 20 313 0.0 0.0 0.00 0.00 0.00 61 1007.6
20260506024002 20 313 0.0 0.0 0.00 0.00 0.00 60 1007.8
20260506023459 20 312 0.0 0.0 0.00 0.00 0.00 59 1007.8
20260506022955 20 328 0.0 0.0 0.00 0.00 0.00 58 1007.8
20260506022453 21 317 0.0 0.0 0.00 0.00 0.00 58 1007.8
20260506021951 21 291 0.0 0.0 0.00 0.00 0.00 58 1007.8
20260506021448 21 291 0.0 0.0 0.00 0.00 0.00 57 1007.8
20260506020945 21 291 0.0 0.0 0.00 0.00 0.00 56 1007.6
20260506020443 21 291 0.0 0.0 0.00 0.00 0.00 55 1007.8
20260506015940 21 291 0.0 0.0 0.00 0.00 0.00 55 1007.5
20260506015437 21 291 0.0 0.0 0.00 0.00 0.00 54 1007.5
20260506014934 22 292 0.0 0.0 0.00 0.00 0.00 53 1007.4
20260506014431 22 302 0.0 0.0 0.00 0.00 0.00 53 1007.3
20260506013927 22 184 0.0 0.0 0.00 0.00 0.00 51 1007.4
20260506013426 22 184 0.0 0.0 0.00 0.00 0.00 48 1007.3
20260506012921 23 181 0.0 0.0 0.00 0.00 0.00 46 1007.3
20260506012418 23 181 0.0 0.0 0.00 0.00 0.00 44 1007.4
20260506011915 23 180 0.0 0.0 0.00 0.00 0.00 44 1006.9
20260506011412 24 217 0.0 0.0 0.00 0.00 0.00 43 1007.0
20260506010909 24 244 1.6 1.6 0.00 0.00 0.00 41 1007.0
20260506010408 24 257 0.0 0.0 0.00 0.00 0.00 42 1007.0
20260506005904 24 283 0.0 0.0 0.00 0.00 0.00 42 1006.7
20260506005402 25 251 0.0 0.0 0.00 0.00 0.00 42 1006.8
20260506004857 25 70 1.6 3.2 0.00 0.00 0.00 40 1006.7
20260506004355 25 131 0.0 1.6 0.00 0.00 0.00 41 1006.7
20260506003851 25 215 0.0 0.0 0.00 0.00 0.00 41 1006.9
20260506003347 25 340 0.0 1.6 0.00 0.00 0.00 41 1006.9
20260506002843 25 296 0.0 0.0 0.00 0.00 0.00 40 1006.4
20260506002340 25 255 0.0 1.6 0.00 0.00 0.00 40 1006.7
20260506001835 25 245 0.0 1.6 0.00 0.00 0.00 39 1006.6
20260506001333 25 212 0.0 1.6 0.00 0.00 0.00 40 1006.5
20260506000830 25 303 1.6 3.2 0.00 0.00 0.00 40 1006.3
20260506000329 25 141 1.6 3.2 0.00 0.00 0.00 39 1006.3
20260505235824 25 133 1.6 1.6 0.00 0.00 0.00 39 1006.4
20260505235322 25 217 1.6 1.6 0.00 0.00 0.00 39 1006.4
20260505234818 25 58 6.4 11.3 0.00 0.00 0.00 38 1006.4
20260505234316 25 236 1.6 3.2 0.00 0.00 0.00 39 1006.2
20260505233813 25 142 1.6 3.2 0.00 0.00 0.00 40 1006.0
20260505233311 25 207 0.0 0.0 0.00 0.00 0.00 39 1006.1
20260505232808 25 46 0.0 1.6 0.00 0.00 0.00 39 1005.9
20260505232306 26 231 0.0 1.6 0.00 0.00 0.00 38 1006.1
20260505231802 25 277 1.6 3.2 0.00 0.00 0.00 38 1005.8
20260505231300 26 196 3.2 6.4 0.00 0.00 0.00 37 1005.9
20260505230758 26 110 3.2 3.2 0.00 0.00 0.00 38 1005.8
20260505230255 26 200 3.2 4.8 0.00 0.00 0.00 37 1005.7
20260505225751 26 103 3.2 4.8 0.00 0.00 0.00 37 1005.7
20260505225249 26 214 1.6 1.6 0.00 0.00 0.00 37 1005.6
20260505224743 26 277 3.2 4.8 0.00 0.00 0.00 36 1005.6
20260505224241 26 259 1.6 1.6 0.00 0.00 0.00 36 1005.6
20260505223739 26 281 1.6 1.6 0.00 0.00 0.00 36 1005.5
20260505223235 26 75 1.6 3.2 0.00 0.00 0.00 36 1005.3
20260505222731 26 327 0.0 0.0 0.00 0.00 0.00 35 1005.3
20260505222227 26 47 3.2 3.2 0.00 0.00 0.00 34 1005.2
20260505221725 26 110 3.2 3.2 0.00 0.00 0.00 34 1005.2
20260505221221 27 31 3.2 3.2 0.00 0.00 0.00 35 1005.2
20260505220718 27 229 3.2 6.4 0.00 0.00 0.00 34 1005.1
20260505220216 27 40 1.6 1.6 0.00 0.00 0.00 34 1005.2
20260505215714 27 263 4.8 6.4 0.00 0.00 0.00 35 1004.9
20260505215211 27 218 3.2 3.2 0.00 0.00 0.00 35 1005.0
20260505214709 27 4 0.0 1.6 0.00 0.00 0.00 35 1004.9
20260505214206 27 96 3.2 4.8 0.00 0.00 0.00 34 1004.8
20260505213703 27 195 4.8 9.7 0.00 0.00 0.00 34 1004.7
20260505213200 27 151 3.2 4.8 0.00 0.00 0.00 34 1004.7
20260505212656 27 54 3.2 4.8 0.00 0.00 0.00 34 1004.7
20260505212154 27 233 11.3 17.7 0.00 0.00 0.00 32 1004.6
20260505211650 27 185 3.2 6.4 0.00 0.00 0.00 33 1004.6
20260505211148 27 179 9.7 12.9 0.00 0.00 0.00 32 1004.4
20260505210644 28 313 1.6 3.2 0.00 0.00 0.00 33 1004.6
20260505210141 28 151 1.6 3.2 0.00 0.00 0.00 33 1004.5
20260505205638 29 178 4.8 6.4 0.00 0.00 0.00 33 1004.5
20260505205137 29 88 3.2 3.2 0.00 0.00 0.00 32 1004.3
20260505204633 29 254 4.8 6.4 0.00 0.00 0.00 33 1004.5
20260505204131 29 185 3.2 4.8 0.00 0.00 0.00 32 1004.4
20260505203628 28 184 8.0 9.7 0.00 0.00 0.00 33 1004.6
20260505203125 28 221 8.0 11.3 0.00 0.00 0.00 32 1004.7
20260505202620 29 63 3.2 4.8 0.00 0.00 0.00 34 1004.4
20260505202116 29 42 6.4 11.3 0.00 0.00 0.00 34 1004.5
20260505201613 28 159 4.8 9.7 0.00 0.00 0.00 33 1004.9
20260505201111 28 107 6.4 12.9 0.00 0.00 0.00 33 1004.7
20260505200609 28 198 3.2 3.2 0.00 0.00 0.00 34 1004.9
20260505200106 28 200 6.4 9.7 0.00 0.00 0.00 33 1004.6
20260505195601 28 192 12.9 20.9 0.00 0.00 0.00 32 1005.0
20260505195059 29 74 6.4 6.4 0.00 0.00 0.00 34 1004.9
20260505194556 29 316 4.8 9.7 0.00 0.00 0.00 33 1005.0
20260505194052 29 158 4.8 6.4 0.00 0.00 0.00 33 1005.0
20260505193549 28 238 4.8 9.7 0.00 0.00 0.00 35 1005.2
20260505193046 28 357 3.2 4.8 0.00 0.00 0.00 35 1005.1
20260505192545 28 99 6.4 9.7 0.00 0.00 0.00 35 1005.2
20260505192042 29 233 6.4 12.9 0.00 0.00 0.00 34 1005.4
20260505191540 28 295 3.2 6.4 0.00 0.00 0.00 35 1005.1
20260505191038 28 152 9.7 16.1 0.00 0.00 0.00 33 1005.4
20260505190538 29 244 9.7 16.1 0.00 0.00 0.00 34 1005.5
20260505190034 28 143 3.2 4.8 0.00 0.00 0.00 35 1005.3
20260505185531 28 25 3.2 6.4 0.00 0.00 0.00 40 1005.5
20260505185028 29 129 6.4 9.7 0.00 0.00 0.00 35 1005.7
20260505184524 28 307 1.6 1.6 0.00 0.00 0.00 39 1005.3
20260505184021 28 91 4.8 4.8 0.00 0.00 0.00 37 1005.4
20260505183518 28 145 6.4 9.7 0.00 0.00 0.00 37 1005.7
20260505183015 28 321 9.7 14.5 0.00 0.00 0.00 37 1005.7
20260505182512 29 68 4.8 6.4 0.00 0.00 0.00 37 1005.6
20260505182008 29 242 4.8 6.4 0.00 0.00 0.00 36 1005.8
20260505181505 28 231 3.2 6.4 0.00 0.00 0.00 37 1005.9
20260505181002 28 194 6.4 11.3 0.00 0.00 0.00 36 1006.0
20260505180458 28 132 6.4 9.7 0.00 0.00 0.00 40 1006.0
20260505175955 28 210 12.9 17.7 0.00 0.00 0.00 38 1006.2
20260505175451 28 189 6.4 11.3 0.00 0.00 0.00 38 1006.0
20260505174948 28 188 9.7 16.1 0.00 0.00 0.00 39 1006.2
20260505174445 27 126 4.8 6.4 0.00 0.00 0.00 41 1006.2
20260505173941 28 225 6.4 9.7 0.00 0.00 0.00 39 1006.2
20260505173438 28 142 11.3 16.1 0.00 0.00 0.00 40 1006.2
20260505172935 27 156 3.2 3.2 0.00 0.00 0.00 44 1006.3
20260505172433 27 54 1.6 3.2 0.00 0.00 0.00 42 1006.3
20260505171932 27 156 12.9 16.1 0.00 0.00 0.00 41 1006.5
20260505171430 27 219 1.6 1.6 0.00 0.00 0.00 42 1006.1
20260505170926 27 196 4.8 6.4 0.00 0.00 0.00 42 1006.4
20260505170423 27 169 3.2 4.8 0.00 0.00 0.00 44 1006.4
20260505165918 27 81 1.6 1.6 0.00 0.00 0.00 46 1006.4
20260505165414 27 33 11.3 16.1 0.00 0.00 0.00 43 1006.8
20260505164909 27 266 4.8 9.7 0.00 0.00 0.00 43 1006.9
20260505164407 26 241 3.2 4.8 0.00 0.00 0.00 46 1006.9
20260505163905 26 56 3.2 4.8 0.00 0.00 0.00 47 1007.0
20260505163404 26 214 4.8 6.4 0.00 0.00 0.00 48 1007.0
20260505162902 26 92 3.2 4.8 0.00 0.00 0.00 46 1007.0
20260505162357 26 208 1.6 3.2 0.00 0.00 0.00 48 1007.3
20260505161855 26 200 6.4 11.3 0.00 0.00 0.00 46 1007.4
20260505161351 26 201 4.8 4.8 0.00 0.00 0.00 46 1007.3
20260505160849 26 313 0.0 1.6 0.00 0.00 0.00 49 1007.4
20260505160347 26 56 1.6 3.2 0.00 0.00 0.00 51 1007.5